This demonstration page uses our WeatherBlox Daily Observations layout. Learn more.

Hourly Observations for December 4, 2019

Temp ( °F °C ) Dew Point ( °F °C ) Humidity (%) Winds ( mph kmh ) Pressure ( in mb ) Visibility ( mi km ) Precip ( " mm )
12:15 am 00:15 Cloudy 36 2 32 0 87 87 WNW 5 7 29.7 1006 10 16.0934 0 0
12:35 am 00:35 Cloudy 36 2 32 0 87 87 NW 15 24 29.71 1006 10 16.0934 0 0
12:55 am 00:55 Cloudy 34 1 32 0 93 93 WNW 5 7 29.7 1006 2.5 4.02335 0.01 0.254
1:35 am 01:35 Cloudy 32 0 32 0 100 100 Calm 29.7 1006 3 4.82802 0.01 0.254
1:55 am 01:55 Cloudy 32 0 32 0 100 100 Calm 29.69 1005 3 4.82802 0.01 0.254
2:15 am 02:15 Cloudy 32 0 32 0 100 100 Calm 29.69 1005 7 11.26538 0 0
2:35 am 02:35 Cloudy 32 0 32 0 100 100 Calm 29.69 1005 7 11.26538 0.01 0.254
2:55 am 02:55 Cloudy 32 0 32 0 100 100 SSW 3 6 29.69 1005 7 11.26538 0.01 0.254
3:35 am 03:35 Cloudy 32 0 32 0 100 100 Calm 29.68 1005 5 8.0467 0.01 0.254
3:55 am 03:55 Cloudy 32 0 32 0 100 100 Calm 29.67 1005 7 11.26538 0.01 0.254
4:15 am 04:15 Cloudy 32 0 32 0 100 100 Calm 29.67 1005 10 16.0934 0 0
4:35 am 04:35 Cloudy 32 0 32 0 100 100 Calm 29.66 1004 7 11.26538 0.01 0.254
4:55 am 04:55 Cloudy 32 0 32 0 100 100 Calm 29.66 1004 5 8.0467 0.01 0.254
5:15 am 05:15 Mostly Cloudy 32 0 32 0 100 100 Calm 29.66 1004 10 16.0934 0 0
5:35 am 05:35 Partly Cloudy 32 0 32 0 100 100 Calm 29.66 1004 5 8.0467 0 0
5:55 am 05:55 Clear 32 0 32 0 100 100 W 5 7 29.66 1004 7 11.26538 0 0
6:15 am 06:15 Clear 32 0 32 0 100 100 Calm 29.67 1005 5 8.0467 0 0
6:35 am 06:35 Clear 32 0 32 0 100 100 Calm 29.67 1005 5 8.0467 0 0
6:55 am 06:55 Clear 32 0 32 0 100 100 Calm 29.67 1005 7 11.26538 0 0
7:15 am 07:15 Sunny 32 0 32 0 100 100 SSW 5 7 29.67 1005 5 8.0467 0 0
7:35 am 07:35 Sunny 32 0 32 0 100 100 W 6 9 29.67 1005 5 8.0467 0 0
7:55 am 07:55 Sunny 32 0 32 0 100 100 S 3 6 29.66 1004 5 8.0467 0 0
8:15 am 08:15 Partly Cloudy 32 0 32 0 100 100 Calm 29.66 1004 5 8.0467 0 0
8:35 am 08:35 Cloudy 32 0 32 0 100 100 S 3 6 29.66 1004 7 11.26538 0 0
8:55 am 08:55 Cloudy 32 0 32 0 100 100 S 3 6 29.66 1004 7 11.26538 0 0
9:15 am 09:15 Cloudy 32 0 32 0 100 100 Calm 29.67 1005 5 8.0467 0.01 0.254
9:35 am 09:35 Cloudy 32 0 32 0 100 100 Calm 29.67 1005 7 11.26538 0.01 0.254
9:55 am 09:55 Cloudy 32 0 32 0 100 100 Calm 29.66 1004 10 16.0934 0.02 0.508
10:15 am 10:15 Cloudy 34 1 34 1 100 100 Calm 29.65 1004 10 16.0934 0 0
10:35 am 10:35 Cloudy 34 1 34 1 100 100 Calm 29.65 1004 10 16.0934 0.01 0.254
10:55 am 10:55 Cloudy 36 2 36 2 100 100 S 3 6 29.64 1004 10 16.0934 0.01 0.254
11:15 am 11:15 Cloudy 36 2 34 1 93 93 S 6 9 29.63 1003 10 16.0934 0 0
11:35 am 11:35 Cloudy 37 3 36 2 93 93 SW 5 7 29.62 1003 10 16.0934 0 0
11:55 am 11:55 Cloudy 37 3 34 1 87 87 S 5 7 29.6 1002 10 16.0934 0 0
12:15 pm 12:15 Cloudy 41 5 36 2 81 81 SSW 3 6 29.58 1002 10 16.0934 0 0
12:35 pm 12:35 Mostly Cloudy 43 6 34 1 71 71 SW 3 6 29.57 1001 10 16.0934 0 0
12:55 pm 12:55 Partly Cloudy 43 6 34 1 71 71 S 7 11 29.55 1001 10 16.0934 0 0
1:15 pm 13:15 Mostly Cloudy 43 6 34 1 71 71 SSW 5 7 29.54 1000 10 16.0934 0 0
1:35 pm 13:35 Cloudy 43 6 34 1 71 71 S 6 9 29.53 1000 10 16.0934 0 0
1:55 pm 13:55 Cloudy 45 7 32 0 61 61 SSE 5 7 29.53 1000 10 16.0934 0 0
2:15 pm 14:15 Cloudy 45 7 34 1 66 66 Calm 29.53 1000 10 16.0934 0 0
2:35 pm 14:35 Cloudy 45 7 34 1 66 66 Calm 29.53 1000 10 16.0934 0 0
2:55 pm 14:55 Cloudy 45 7 34 1 66 66 Calm 29.53 1000 10 16.0934 0 0
3:15 pm 15:15 Cloudy 45 7 37 3 76 76 SW 3 6 29.53 1000 10 16.0934 0 0
3:35 pm 15:35 Cloudy 43 6 37 3 81 81 SSW 3 6 29.54 1000 10 16.0934 0 0
3:55 pm 15:55 Cloudy 45 7 37 3 76 76 WNW 5 7 29.55 1001 10 16.0934 0 0
4:15 pm 16:15 Mostly Cloudy 43 6 37 3 81 81 WNW 6 9 29.56 1001 10 16.0934 0 0
4:35 pm 16:35 Partly Cloudy 45 7 32 0 61 61 WNW 10 17 29.57 1001 10 16.0934 0 0
4:55 pm 16:55 Partly Cloudy 45 7 32 0 61 61 W 23 37 29.58 1002 10 16.0934 0 0
5:15 pm 17:15 Partly Cloudy 45 7 30 -1 57 57 WNW 18 30 29.59 1002 10 16.0934 0 0
5:35 pm 17:35 Partly Cloudy 43 6 30 -1 61 61 NW 14 22 29.6 1002 10 16.0934 0 0
5:55 pm 17:55 Partly Cloudy 43 6 32 0 66 66 NW 12 19 29.62 1003 10 16.0934 0 0
6:15 pm 18:15 Clear 41 5 30 -1 66 66 WNW 14 22 29.63 1004 10 16.0934 0 0
6:35 pm 18:35 Clear 41 5 30 -1 66 66 NW 12 19 29.63 1004 10 16.0934 0 0
6:55 pm 18:55 Mostly Cloudy 41 5 32 0 70 70 NW 8 13 29.63 1004 10 16.0934 0 0
7:55 pm 19:55 Cloudy 41 5 32 0 70 70 NNW 7 11 29.64 1004 10 16.0934 0 0
8:15 pm 20:15 Mostly Cloudy 39 4 32 0 75 75 NW 8 13 29.65 1004 10 16.0934 0 0
8:35 pm 20:35 Cloudy 41 5 32 0 70 70 WNW 9 15 29.64 1004 10 16.0934 0 0
8:55 pm 20:55 Mostly Cloudy 41 5 32 0 70 70 W 7 11 29.63 1004 10 16.0934 0 0
9:15 pm 21:15 Partly Cloudy 37 3 32 0 81 81 W 5 7 29.65 1004 10 16.0934 0 0
9:35 pm 21:35 Partly Cloudy 37 3 32 0 81 81 W 7 11 29.65 1004 10 16.0934 0 0
9:55 pm 21:55 Mostly Cloudy 39 4 32 0 75 75 NW 7 11 29.66 1004 10 16.0934 0 0
10:15 pm 22:15 Cloudy 39 4 32 0 75 75 NNW 7 11 29.66 1004 10 16.0934 0 0
10:35 pm 22:35 Cloudy 39 4 34 1 81 81 NNW 9 15 29.68 1005 10 16.0934 0 0
10:55 pm 22:55 Cloudy 39 4 34 1 81 81 NW 13 20 29.68 1005 10 16.0934 0 0
11:15 pm 23:15 Partly Cloudy 37 3 34 1 87 87 W 7 11 29.68 1005 10 16.0934 0 0
11:35 pm 23:35 Mostly Cloudy 37 3 34 1 87 87 W 9 15 29.68 1005 10 16.0934 0 0
11:55 pm 23:55 Cloudy 37 3 34 1 87 87 W 9 15 29.68 1005 10 16.0934 0 0

Powered by AerisWeather